Temperature
15 15 15 15 15 16 16 16 16 16 16 16 16 16 16 16 16 15 16 16 16 16 16 16 16 15 16 16 16 15 15 15 15 15 15 15 15 15 15 15 14 14 15
15 15 15 15 15 16 15 15 15 15 15 15 15 15 15 15 15 15 16 16 16 16 16 16 16 16 16 16 15 15 15 15 15 15 15 15 15 15 15 15 15 14 15
15 15 15 15 15 15 15 15 15 15 15 15 15 15 15 15 15 15 15 15 15 15 16 16 16 15 15 15 15 15 15 15 15 15 14 14 14 15 14 14 15 15 15
15 15 15 15 15 15 15 15 15 15 15 15 15 15 15 15 15 15 15 15 15 15 15 15 15 15 15 15 15 15 15 15 15 15 14 14 14 14 14 14 14 15 14
14 14 14 15 15 15 15 15 15 15 15 15 15 15 15 15 15 15 15 15 15 15 15 15 15 15 15 15 15 15 15 15 15 14 14 13 13 14 14 14 14 14 14
14 14 14 14 15 15 15 15 15 15 15 15 15 15 15 15 15 15 15 15 15 15 15 15 15 15 15 15 15 15 15 14 14 13 13 13 13 14 14 14 14 14 14
13 14 14 14 14 14 15 15 15 15 15 15 15 15 15 15 15 15 15 15 15 15 15 15 15 15 15 15 14 14 14 14 13 13 13 13 13 14 14 14 14 14 14
13 13 13 14 14 14 14 14 14 15 15 15 15 15 15 15 15 15 15 15 15 15 15 14 14 14 14 14 14 14 14 14 13 13 13 13 13 13 13 13 13 13 13
13 13 13 13 13 14 14 14 14 14 15 15 15 15 15 14 14 14 14 14 14 14 14 14 14 14 14 14 14 14 14 14 13 13 13 13 13 13 13 13 13 13 13
12 12 13 13 13 13 14 14 14 14 14 14 14 14 14 14 14 14 14 14 14 14 14 14 14 14 14 14 14 14 14 13 12 12 12 12 13 12 13 13 13 13 13
12 12 12 13 13 13 13 13 14 14 14 14 14 14 14 14 14 14 14 14 14 14 14 14 14 14 14 14 14 13 13 13 12 12 12 12 12 12 12 12 12 12 12
11 12 12 12 13 13 13 13 13 13 13 13 14 14 14 14 14 14 14 14 14 14 14 14 14 13 13 13 13 13 13 12 12 12 12 12 12 12 12 12 12 12 12
11 11 12 12 12 13 13 13 13 13 13 13 13 13 14 14 14 13 13 13 13 13 13 13 13 13 13 13 13 13 12 12 12 11 11 11 11 11 11 11 11 11 11
11 11 11 11 12 12 12 13 12 12 13 13 13 13 13 13 13 13 13 13 13 13 13 13 13 13 13 12 12 12 12 12 11 11 11 11 11 11 11 11 11 11 11
10 11 11 11 11 11 12 12 12 12 12 13 13 13 13 13 13 13 13 13 13 13 13 13 13 13 12 12 12 12 12 11 11 11 11 11 11 11 10 10 10 10 10
10 10 10 11 11 11 11 12 12 12 12 12 12 12 12 12 13 13 13 13 13 13 13 13 13 12 12 12 12 11 11 11 11 10 10 10 11 11 10 10 10 10 10
10 10 10 10 11 11 11 11 11 11 12 12 12 12 12 12 12 12 12 12 12 12 12 12 12 12 12 12 11 11 11 11 10 10 10 10 10 10 10 10 10 10 10
9 9 10 10 10 10 10 11 11 11 11 11 12 12 12 12 12 12 12 12 12 12 12 12 12 12 11 11 11 11 11 10 10 10 10 10 10 10 10 10 10 10 10
9 9 9 10 10 10 10 10 11 11 11 11 11 11 12 11 11 11 12 12 12 11 11 11 11 11 11 11 11 10 10 10 10 10 9 10 10 10 10 10 10 10 9
9 9 9 9 10 10 10 10 10 10 10 10 11 11 11 11 11 11 11 11 11 11 11 11 11 11 10 10 10 10 10 9 9 9 9 9 9 9 9 9 9 9 9
8 9 9 9 9 9 10 10 9 9 10 10 10 10 10 10 11 11 11 11 11 11 11 10 10 10 10 10 10 9 9 9 9 9 9 9 9 9 9 8 8 8 8
8 8 8 8 9 9 9 9 9 9 9 9 10 10 10 10 10 10 10 10 10 10 10 10 10 10 10 9 9 8 8 8 8 8 8 8 8 8 8 8 8 8 8
8 8 8 8 8 8 9 9 9 9 9 9 9 9 10 10 10 10 10 10 10 10 10 10 10 10 9 9 9 8 8 8 7 7 8 8 8 8 7 7 7 7 7
8 8 8 8 8 8 8 8 8 9 9 9 9 9 9 9 9 9 9 9 9 9 9 9 9 9 9 9 9 9 8 8 7 7 7 7 7 7 7 7 7 7 7
8 8 8 8 8 8 8 8 8 8 8 9 9 9 9 9 9 9 9 9 9 9 9 9 9 9 9 8 8 8 8 8 7 7 7 6 6 7 7 7 7 7 6
8 8 8 8 8 8 8 8 8 8 8 8 8 8 8 8 8 9 9 9 9 9 9 8 8 8 8 8 8 7 7 7 7 6 6 6 6 6 6 6 6 6 6
Wind_Speed
2 3 5 4 7 8 9 10 11 12 13 13 13 13 12 12 12 11 11 11 10 10 10 10 11 11 11 11 11 11 10 10 11 11 10 10 10 10 10 8 6 10 11
2 3 6 5 6 8 10 10 11 11 12 12 13 12 12 12 12 11 11 11 10 10 10 10 11 10 11 11 11 11 11 11 10 9 8 10 10 10 9 8 8 9 9
1 3 6 6 6 8 10 11 11 11 11 12 12 12 12 12 11 11 11 11 11 10 10 11 10 10 10 10 10 11 11 10 9 7 5 8 10 9 9 8 9 8 7
2 3 5 6 7 7 9 11 11 11 11 11 12 12 12 12 12 11 11 11 10 10 10 10 10 10 11 10 10 10 10 9 8 4 5 7 8 9 8 8 7 7 7
2 3 4 5 7 8 9 11 12 12 11 11 11 11 12 12 12 12 11 11 11 10 11 11 10 10 11 10 10 10 9 8 6 4 6 6 7 8 7 7 7 7 6
2 3 4 6 6 8 9 11 12 12 12 12 11 11 11 11 12 12 12 11 11 11 11 11 11 10 10 10 9 10 9 7 5 6 6 5 6 7 6 7 7 7 6
2 3 5 6 6 7 8 10 12 12 12 12 12 11 11 11 12 12 11 11 11 11 11 11 10 10 10 10 9 9 8 5 4 6 5 5 6 6 6 6 6 6 6
3 3 5 6 6 7 8 10 12 12 13 12 12 12 12 11 11 12 12 11 11 10 10 10 10 10 10 9 9 9 8 4 5 6 6 6 7 7 7 7 7 7 8
2 3 4 6 6 7 7 9 11 12 12 12 12 12 12 11 11 11 11 11 10 10 11 11 10 10 10 10 9 9 8 4 5 6 6 7 8 7 8 7 7 8 8
1 2 3 5 6 6 7 8 10 12 12 12 12 13 12 11 11 11 11 10 10 11 11 11 11 10 10 9 9 9 7 4 5 6 5 7 8 8 8 8 7 7 7
1 1 3 4 5 6 7 7 9 11 12 13 12 13 11 10 9 9 10 11 11 11 11 10 10 10 10 9 8 7 5 4 5 5 5 7 7 7 7 7 7 7 6
1 0 2 4 5 6 6 7 6 8 10 10 10 10 9 8 8 8 10 11 11 11 10 10 9 8 6 6 6 5 4 4 4 5 6 7 6 7 7 7 6 6 7
2 1 2 3 4 5 5 6 5 5 6 8 9 9 8 8 7 7 7 7 8 8 7 7 7 5 5 4 4 4 4 4 4 5 7 7 6 7 7 7 7 7 7
3 2 2 3 4 5 6 6 5 4 5 5 7 8 7 6 6 6 5 5 5 5 5 5 4 5 5 5 5 5 5 4 4 5 7 9 7 7 7 8 7 7 8
4 4 3 2 3 5 6 6 5 4 5 6 6 6 7 6 6 5 5 5 5 4 5 4 4 5 6 5 5 5 5 5 5 6 7 10 9 8 8 8 8 8 8
5 5 4 3 3 5 6 6 5 4 5 6 6 6 6 6 6 6 5 4 4 4 4 5 5 5 5 5 5 5 5 5 5 6 6 8 10 10 9 8 8 8 8
5 5 5 4 3 5 6 7 5 5 4 5 5 6 5 6 6 6 5 4 4 5 5 5 6 5 5 5 5 5 5 5 5 6 6 6 7 9 9 8 8 8 8
4 4 5 4 4 6 6 6 6 5 4 4 5 6 6 5 6 6 5 5 5 5 5 4 4 5 5 5 4 4 4 4 5 5 5 5 5 5 7 8 8 8 7
4 4 4 5 5 6 6 6 6 5 4 4 5 5 5 5 5 5 5 5 6 5 4 4 4 4 5 5 4 4 3 3 3 3 4 4 4 4 4 6 7 8 7
3 4 5 5 6 7 6 5 4 4 4 4 4 5 5 4 5 5 5 6 6 4 4 4 5 5 5 5 5 4 3 3 3 3 3 3 3 3 3 3 3 5 6
3 3 5 5 6 6 5 5 4 3 3 3 3 5 5 5 5 5 4 5 4 4 5 5 5 6 4 4 3 3 2 2 2 2 2 2 2 2 2 2 2 2 3
3 3 4 4 5 6 5 4 4 3 3 3 3 4 4 4 4 4 4 4 4 4 5 5 5 4 3 2 1 2 2 2 2 1 1 1 1 1 1 1 2 2 2
4 4 4 5 5 5 6 5 5 4 3 2 3 3 3 4 4 4 4 4 4 4 4 4 4 4 3 2 0 1 1 2 1 2 2 2 1 1 1 0 0 1 1
4 4 5 5 6 6 5 5 6 4 4 3 3 3 4 4 4 5 4 4 4 3 4 4 3 2 4 3 1 1 2 1 1 2 2 2 2 2 2 1 1 1 1
5 4 5 5 6 6 6 6 6 4 3 3 4 5 4 3 4 4 4 4 3 3 3 4 3 3 2 3 2 1 1 1 2 2 2 2 2 2 2 2 2 2 2
4 4 5 6 6 6 6 6 6 6 5 5 5 5 4 3 3 3 4 3 3 3 3 3 3 3 2 2 2 2 2 2 2 2 3 3 3 2 3 3 3 3 3
Wind_Direction
165 177 161 170 159 155 155 151 152 154 152 148 145 144 142 138 136 133 127 123 122 119 117 114 111 109 106 103 102 101 99 96 91 88 86 85 86 86 84 83 88 87 82
184 180 162 171 164 160 158 152 145 146 149 148 146 142 141 139 135 132 128 124 124 122 119 115 113 113 109 103 103 102 99 98 93 90 95 99 90 86 83 71 58 80 81
172 169 170 168 164 162 159 153 148 143 147 148 147 147 144 142 138 135 131 127 122 119 117 114 112 112 113 107 105 106 102 100 98 100 124 104 96 88 84 76 73 81 84
189 175 175 167 167 161 161 156 150 148 144 146 149 150 148 145 141 136 132 129 125 120 117 114 112 111 112 108 108 110 107 104 103 126 108 94 95 89 84 79 76 74 78
203 183 166 161 167 161 161 159 155 150 147 143 146 148 148 146 143 138 133 130 125 122 119 116 114 113 112 110 108 111 112 111 117 125 95 94 93 88 84 79 73 71 72
207 185 160 160 162 164 160 163 160 155 151 146 146 146 148 146 142 139 133 130 128 126 124 121 118 115 114 111 108 108 112 118 145 107 100 93 90 90 86 79 70 66 66
204 176 160 156 157 164 163 164 161 159 153 149 149 146 144 143 141 138 135 133 130 128 127 123 119 117 114 110 107 109 107 109 112 106 102 89 78 86 85 78 69 66 64
205 181 162 158 157 157 164 166 163 161 154 149 149 148 142 138 142 141 139 136 133 130 127 124 120 117 113 109 107 107 106 114 114 102 99 86 73 86 83 79 73 69 65
203 176 165 165 165 158 158 164 163 160 152 147 147 142 137 133 132 136 135 133 132 131 126 122 119 117 115 110 108 110 107 103 110 100 95 83 77 79 79 77 75 69 63
237 184 161 164 163 163 156 155 161 154 150 143 140 132 127 125 124 128 130 125 124 124 124 122 119 116 112 110 108 111 118 134 106 105 95 82 77 78 79 75 71 69 63
336 224 171 164 157 153 143 133 152 148 143 139 137 133 135 136 133 131 122 121 122 120 118 117 117 115 114 110 106 110 129 122 109 96 87 82 82 79 76 73 69 66 63
262 234 169 168 156 144 136 129 138 147 148 151 149 147 143 136 126 123 115 113 116 119 119 116 117 127 135 126 121 130 122 121 110 100 85 81 82 80 73 72 70 66 61
226 195 171 153 157 142 136 126 124 134 137 149 150 147 137 129 125 125 127 127 126 129 128 129 135 130 131 127 127 120 110 112 106 99 85 77 78 78 74 71 71 65 61
204 181 145 133 147 144 138 126 119 132 132 134 144 144 137 127 125 124 127 131 136 135 133 136 129 131 127 126 126 120 114 114 110 98 80 73 75 76 74 70 66 61 58
198 168 140 121 135 149 137 129 124 130 126 128 126 136 137 132 132 125 123 125 125 126 131 130 129 128 126 118 114 116 113 114 115 107 90 71 68 72 73 67 62 61 59
187 166 152 146 141 144 139 134 131 120 119 122 118 120 134 136 135 130 125 118 117 121 122 126 123 124 121 119 116 112 112 113 112 105 98 86 75 73 72 67 60 55 52
188 168 154 150 148 143 132 130 122 118 120 124 123 124 128 135 135 130 126 121 117 119 121 120 120 118 114 115 114 107 103 109 113 110 102 96 91 78 73 67 58 51 46
180 166 152 143 136 139 126 121 117 117 120 127 128 127 127 135 139 135 129 123 121 122 125 123 124 120 118 117 110 105 107 108 110 106 104 100 96 90 79 66 58 51 44
172 157 144 132 131 129 123 117 113 117 119 119 123 122 122 130 139 136 129 128 130 128 126 127 126 126 120 112 106 103 105 110 106 109 106 99 94 91 87 78 66 52 42
144 145 141 136 136 132 123 116 114 118 117 105 106 114 123 131 141 133 126 131 134 133 131 132 125 119 116 118 116 106 101 102 112 112 111 102 95 89 83 79 73 64 49
128 139 141 140 138 139 136 136 137 143 131 119 113 118 123 127 139 136 133 135 140 139 138 138 132 126 118 124 128 121 114 109 120 133 132 120 101 90 82 66 50 44 54
156 147 130 138 142 142 141 137 134 136 129 118 118 111 115 127 139 138 139 145 147 142 141 142 140 138 133 146 164 168 173 174 160 169 170 165 152 132 103 66 53 35 22
161 163 157 150 147 142 135 127 118 117 121 120 123 122 114 129 136 132 140 147 150 148 148 151 156 155 157 153 272 243 214 213 170 182 200 205 216 219 217 349 359 13 14
170 162 159 155 147 144 143 144 149 157 160 160 149 141 127 125 133 132 136 139 140 145 151 158 161 168 171 171 168 342 333 322 222 197 192 205 234 247 252 242 247 255 304
161 159 156 156 154 150 153 157 164 163 156 146 143 137 130 124 127 130 132 133 140 145 148 154 158 167 184 188 184 180 185 237 251 244 235 226 238 240 256 249 237 238 251
155 155 158 166 163 161 166 170 174 167 165 159 157 153 148 140 137 134 134 140 149 150 153 157 161 170 175 182 187 200 212 225 225 238 253 253 256 245 247 242 235 235 244
Height
1515 1516 1517 1518 1520 1521 1522 1523 1524 1525 1526 1527 1528 1529 1530 1530 1531 1531 1532 1533 1533 1534 1534 1535 1535 1535 1536 1536 1536 1536 1537 1537 1537 1537 1537 1538 1538 1538 1538 1538 1539 1539 1538
1514 1515 1516 1518 1519 1521 1522 1523 1524 1525 1526 1527 1528 1529 1530 1531 1531 1532 1532 1533 1533 1534 1534 1535 1535 1536 1536 1536 1537 1537 1537 1538 1538 1538 1539 1539 1539 1539 1539 1539 1539 1540 1539
1513 1515 1516 1517 1519 1520 1521 1522 1524 1525 1526 1527 1528 1529 1530 1531 1531 1532 1532 1533 1534 1534 1535 1535 1536 1536 1536 1537 1537 1538 1538 1539 1539 1539 1540 1541 1540 1540 1540 1540 1540 1540 1540
1513 1514 1515 1517 1518 1519 1521 1522 1523 1524 1525 1527 1528 1528 1529 1530 1531 1532 1532 1533 1534 1534 1535 1535 1536 1536 1537 1537 1538 1538 1539 1539 1540 1540 1542 1542 1541 1541 1541 1541 1541 1541 1541
1512 1513 1514 1516 1517 1518 1520 1521 1523 1524 1525 1526 1527 1528 1529 1530 1531 1531 1532 1533 1534 1534 1535 1535 1536 1536 1537 1538 1538 1539 1539 1540 1540 1541 1542 1542 1542 1541 1541 1541 1541 1541 1541
1511 1512 1513 1515 1516 1517 1519 1520 1522 1523 1524 1525 1526 1527 1528 1529 1530 1531 1532 1533 1533 1534 1535 1536 1536 1537 1537 1538 1538 1539 1540 1540 1541 1542 1542 1542 1543 1542 1541 1542 1542 1541 1541
1510 1511 1512 1513 1515 1516 1518 1519 1521 1522 1523 1525 1526 1527 1528 1529 1530 1531 1532 1533 1533 1534 1535 1536 1536 1537 1538 1538 1539 1539 1540 1540 1541 1542 1542 1543 1542 1542 1542 1542 1542 1542 1542
1509 1510 1511 1512 1514 1515 1517 1518 1519 1521 1522 1524 1525 1526 1527 1528 1530 1531 1532 1532 1533 1534 1535 1536 1536 1537 1538 1538 1539 1539 1540 1541 1541 1542 1543 1543 1542 1542 1542 1542 1542 1542 1541
1508 1509 1509 1511 1512 1514 1515 1517 1518 1520 1521 1522 1524 1525 1527 1528 1529 1530 1531 1532 1533 1534 1535 1535 1536 1537 1537 1538 1539 1539 1540 1541 1543 1542 1543 1542 1542 1542 1542 1542 1542 1541 1541
1507 1507 1508 1509 1510 1512 1513 1515 1517 1518 1520 1521 1523 1524 1526 1527 1528 1530 1531 1532 1532 1533 1534 1535 1536 1537 1537 1538 1539 1539 1540 1541 1542 1542 1543 1542 1542 1542 1542 1542 1541 1541 1541
1505 1505 1506 1507 1508 1510 1512 1513 1515 1517 1518 1520 1522 1523 1525 1526 1528 1529 1530 1531 1532 1533 1534 1535 1536 1536 1537 1538 1538 1539 1540 1541 1542 1542 1542 1542 1542 1542 1542 1542 1541 1541 1541
1502 1503 1504 1505 1506 1508 1509 1511 1512 1514 1516 1519 1520 1522 1524 1525 1527 1528 1530 1531 1532 1533 1534 1535 1535 1536 1537 1537 1538 1539 1540 1540 1541 1542 1542 1542 1542 1542 1542 1541 1541 1541 1540
1501 1501 1502 1503 1504 1506 1507 1509 1510 1512 1515 1517 1519 1521 1522 1524 1526 1527 1529 1530 1531 1532 1533 1534 1535 1535 1536 1537 1537 1538 1539 1540 1541 1541 1541 1542 1542 1542 1541 1541 1541 1540 1540
1498 1499 1500 1501 1502 1504 1505 1507 1508 1511 1512 1515 1518 1520 1521 1523 1525 1526 1528 1529 1530 1531 1532 1533 1534 1535 1535 1536 1537 1537 1538 1539 1540 1540 1540 1541 1541 1541 1541 1541 1540 1540 1539
1496 1497 1498 1499 1500 1502 1503 1505 1508 1510 1511 1514 1516 1519 1521 1522 1524 1525 1527 1528 1529 1530 1531 1532 1533 1534 1534 1535 1536 1537 1538 1538 1539 1539 1540 1540 1540 1540 1540 1540 1540 1539 1539
1494 1495 1496 1497 1499 1500 1502 1504 1507 1509 1511 1513 1515 1518 1520 1522 1523 1524 1526 1527 1528 1529 1530 1531 1532 1532 1533 1534 1535 1536 1536 1537 1538 1538 1539 1539 1539 1539 1539 1539 1539 1539 1538
1493 1494 1495 1496 1498 1499 1500 1502 1506 1508 1510 1512 1514 1517 1519 1521 1522 1523 1525 1526 1527 1528 1529 1530 1531 1532 1532 1533 1534 1535 1535 1536 1537 1537 1538 1538 1538 1538 1538 1538 1538 1537 1537
1491 1492 1493 1494 1495 1497 1498 1501 1504 1507 1509 1511 1514 1516 1518 1520 1521 1522 1524 1525 1526 1527 1528 1529 1530 1530 1531 1532 1533 1533 1534 1534 1535 1536 1537 1537 1537 1537 1537 1537 1537 1536 1536
1489 1490 1491 1492 1494 1496 1498 1500 1502 1506 1508 1510 1512 1515 1517 1518 1520 1521 1522 1523 1525 1526 1527 1528 1529 1530 1530 1531 1532 1532 1533 1533 1534 1535 1535 1536 1536 1536 1536 1535 1535 1535 1534
1488 1489 1490 1492 1493 1495 1498 1500 1502 1505 1507 1509 1511 1513 1515 1517 1519 1520 1521 1522 1523 1525 1526 1527 1528 1528 1529 1530 1531 1531 1532 1532 1533 1534 1534 1534 1534 1534 1534 1534 1534 1533 1533
1487 1489 1490 1492 1493 1495 1497 1499 1501 1503 1505 1507 1510 1512 1514 1516 1518 1519 1520 1521 1522 1524 1525 1526 1526 1527 1528 1529 1530 1530 1531 1531 1532 1532 1533 1533 1533 1533 1533 1532 1532 1532 1531
1487 1488 1489 1491 1493 1494 1497 1498 1500 1503 1505 1506 1508 1511 1512 1514 1516 1518 1519 1520 1521 1522 1523 1524 1525 1526 1527 1528 1529 1530 1531 1532 1530 1531 1531 1531 1531 1531 1531 1531 1530 1530 1529
1486 1488 1489 1491 1492 1494 1496 1498 1500 1502 1504 1505 1507 1510 1511 1513 1515 1516 1518 1519 1520 1521 1522 1523 1524 1525 1526 1526 1527 1529 1530 1530 1530 1529 1529 1529 1529 1529 1529 1529 1528 1528 1527
1486 1488 1490 1491 1492 1494 1496 1497 1499 1501 1503 1505 1507 1509 1510 1512 1513 1515 1516 1517 1518 1519 1520 1521 1522 1523 1524 1525 1526 1526 1528 1528 1529 1528 1527 1527 1527 1527 1527 1526 1526 1525 1525
1485 1487 1489 1491 1492 1494 1496 1497 1499 1501 1503 1504 1506 1508 1509 1511 1512 1513 1514 1516 1517 1518 1519 1520 1520 1521 1522 1523 1524 1524 1525 1525 1525 1526 1526 1525 1525 1524 1524 1523 1523 1522 1522
1485 1485 1487 1490 1491 1493 1496 1497 1499 1501 1502 1503 1505 1507 1508 1509 1510 1511 1513 1514 1516 1517 1517 1518 1519 1519 1520 1521 1521 1522 1523 1523 1523 1523 1523 1523 1522 1522 1521 1520 1520 1519 1519